Location: UFOWorks Observatory
(42.1050°N, 72.2350°W)
Time: 07:55:05
(UTC-04:00)

ISS - Visible Passes

Search period start: 25 October 2014 00:00
Search period end: 03 November 2014 23:00
Orbit: 412 x 416 km, 51.6° (Epoch: 25 October)

Date Brightness Start Highest point End Pass type
(mag) Time Alt. Az. Time Alt. Az. Time Alt. Az.
25 Oct -3.3 18:51:24 10° NW 18:54:45 88° NNE 18:57:21 16° SE visible
25 Oct 0.1 20:29:54 10° WSW 20:30:14 11° WSW 20:30:14 11° WSW visible
26 Oct -0.8 19:39:28 10° W 19:41:57 20° SW 19:43:41 14° S visible
27 Oct -1.6 18:49:47 10° WNW 18:52:50 34° SW 18:55:53 10° SSE visible
29 Oct -0.1 18:48:55 10° W 18:50:33 13° SW 18:52:11 10° SSW visible
